Regional Weather Roundup
Issued by NWS

Home | Current Version | Previous Version | Graphics & Text | Print | Product List | Glossary On
Versions: 1 2 3 4 5 6 7 8 9 10 11 12 13 14 15 16 17 18 19 20 21 22 23 24 25 26 27 28 29 30 31 32 33 34 35 36 37 38 39 40 41 42 43 44 45 46 47 48 49 50
000
ASUS45 KTFX 280404
RWRMT
MONTANA HOURLY WEATHER ROUNDUP
NATIONAL WEATHER SERVICE GREAT FALLS MT
1004 PM MDT WED AUG 27 2014

NOTE: "FAIR" INDICATES FEW OR NO CLOUDS BELOW 12000 FEET WITH NO
SIGNIFICANT WEATHER AND/OR OBSTRUCTIONS TO VISIBILITY.

* THESE STATIONS ARE NOT UNDER NWS QUALITY CONTROL. THEY DO NOT
   REPORT WEATHER SUCH AS PRECIPITATION OR FOG.

MTZ001>007-043-280500-
WEST OF THE DIVIDE
CITY           SKY/WX    TMP DP  RH WIND       PRES   REMARKS
KALISPELL      FAIR      64  50  61 W3        29.99R
MISSOULA       CLEAR     68  46  45 VRB3      30.05R
BUTTE          CLEAR     57  46  67 SE7       30.21R
MULLAN PASS    CLEAR     63  37  38 VRB6      30.21R
* LINCOLN      N/A       61  49  65 NW1        N/A
* LOOKOUT PASS N/A       63  45  52 NE1        N/A
* POLSON       N/A       66  45  47 SE1        N/A
* RONAN APT    CLEAR     64  50  61 N/A        N/A
* SEELEY LAKE  N/A       60  46  60 NE2        N/A
* THOMP F APT  CLEAR     59  42  53 N6         N/A
$$

MTZ008-052>055-280500-
SOUTHWEST MONTANA
CITY           SKY/WX    TMP DP  RH WIND       PRES   REMARKS
BOZEMAN        CLEAR     64  46  52 S14       30.12R
DILLON         CLEAR     59  45  60 CALM      30.16R
W YELLOWSTONE  CLEAR     59  43  56 SW8       30.27S
* THREE FORKS  CLEAR     66  66 100 N/A        N/A
* BOULDER HILL N/A       62  34  35 S2         N/A
* MONIDA PASS  N/A       57  40  53 SE3        N/A
* RAYNOLDS PAS N/A       52  31  45 SE4        N/A
* WHITEHALL    N/A       65  47  52 NW4        N/A
* WISE RIVER   N/A       61  40  46 SE4        N/A
$$

MTZ009>010-012-014-046-048-049-054-280500-
EAST SLOPES AND CENTRAL MONTANA
CITY           SKY/WX    TMP DP  RH WIND       PRES   REMARKS
CUT BANK       CLEAR     66  46  49 W10       30.01S
GREAT FALLS    CLEAR     66  46  49 S8        30.02R
HELENA         CLEAR     72  45  38 SW9       30.08R
MALMSTROM AFB  CLEAR     66  48  52 S6        30.02S
* CONRAD       CLEAR     63  54  73 SW6        N/A
* EAST GLACIER N/A       63  46  54 W6G11      N/A
* MONARCH      N/A       58  42  55 S8         N/A
* PENDROY      N/A       63  40  43 NW11       N/A
* ROGERS PASS  N/A       61  43  52 NW4        N/A
* SAINT MARY   N/A       62  46  56 S4G11      N/A
* SWEET GRASS  N/A       71  45  39 SW17       N/A
$$

MTZ011-013-016-021-035-040-045-047-050-051-280500-
NORTH CENTRAL MONTANA
CITY           SKY/WX    TMP DP  RH WIND       PRES   REMARKS
HAVRE          MOCLDY    66  54  65 S9        29.92R
LEWISTOWN      CLEAR     61  48  62 S8        30.07S
* CHESTER      N/A       69  46  44 N2         N/A
* DENTON       N/A       63  46  54 S10        N/A
* GEYSER       N/A       59  46  62 S9         N/A
* JUDITH GAP   N/A       64  45  50 N4         N/A
* LOMA         N/A       72  54  53 SW4        N/A
$$

MTZ017>020-022>027-061-062-280500-
NORTHEAST MONTANA
CITY           SKY/WX    TMP DP  RH WIND       PRES   REMARKS
GLASGOW        CLEAR     66  52  61 CALM      29.92S
GLENDIVE       CLEAR     70  57  64 S12       29.99S
JORDAN         CLEAR     63  55  75 NW5       29.96S
SIDNEY         CLEAR     63  55  75 SW5       29.96S
WOLF POINT     CLEAR     64  55  73 CALM      29.92S
* BEAVER HILL  N/A       67  57  70 SE18       N/A
* CIRCLE       N/A       67  55  66 N/A        N/A
* LINDSAY DVD  N/A       64  52  65 S3         N/A
* NAVAJO       N/A       66  50  56 W9         N/A
$$

MTZ028>042-056>058-280500-
SOUTHCENTRAL AND SOUTHEAST MONTANA
CITY           SKY/WX    TMP DP  RH WIND       PRES   REMARKS
BAKER          PTCLDY    64  61  90 S18       30.04F
BILLINGS       CLEAR     72  52  49 SW3       30.03R
LIVINGSTON     CLEAR     63  45  52 NW8       30.12R
MILES CITY     PTCLDY    72  52  49 S9        29.97S
* LAUREL APT   PTCLDY    70  46  42 N/A        N/A
* ROUNDUP APT  CLEAR     70  48  46 N/A        N/A
* ALZADA       N/A       63  61  93 E4         N/A
* HYSHAM       N/A       74  42  32 W2         N/A
* LAME DEER    N/A       67  49  53 SW4        N/A
* REED POINT   N/A       62  49  63 W1         N/A
* ROSCOE HILL  N/A       63  34  34 SW6        N/A
$$

REGIONAL REPORTS...DAKOTAS
CITY           SKY/WX    TMP DP  RH WIND       PRES   REMARKS
WILLISTON      CLEAR     70  52  53 S7        29.94F
DICKINSON      PTCLDY    63  61  93 S12       30.02F
BEACH          N/A       63  63 100 S12       30.02F
CROSBY         PTCLDY    66  57  73 S14       29.93F
TIOGA          CLEAR     63  63 100 SE9       30.00S
WATFORD CITY   CLEAR     68  55  63 S13G18    29.95F
BISMARCK       CLOUDY    63  61  93 S5        30.04F
GRAND FORKS    CLEAR     61  57  87 SE6       30.06S
FARGO          CLOUDY    66  59  78 SE7       30.07F
BUFFALO SD     CLOUDY    63  61  93 S7        30.01S
RAPID CITY     CLOUDY    63  61  93 NW6       30.06F
$$

REGIONAL REPORTS...WYOMING/IDAHO/WASHINGTON
CITY           SKY/WX    TMP DP  RH WIND       PRES   REMARKS
GILLETTE       CLOUDY    61  55  81 S6        30.12R
SHERIDAN       CLOUDY    63  54  73 S5        30.07S
CODY           PTCLDY    63  52  68 CALM      30.15S
YELLOWSTONE LA PTCLDY    52  41  66 CALM      30.37R
SALMON         CLEAR     63  48  58 CALM      30.10R
MULLAN PASS    CLEAR     63  37  38 VRB6      30.21S
SAND POINT     MOCLDY    63  54  73 CALM      29.94S
SPOKANE        FAIR      79  46  31 SW6       29.95S

$$



USA.gov is the U.S. government's official web portal to all federal, state and local government web resources and services.